Location: Chevoux
(46.3801°N, 4.9476°E)
Time: 17:24:08
(UTC+00:00)

Envisat - Pass Details

Date: 08 December 2021
Orbit: 764 x 766 km, 98.2° (Epoch: 16 January)

Event Time Altitude Azimuth Distance (km) Brightness Sun altitude
Rises 04:42:13 0° 14° (NNE) 3,244 6.3 -24.7°
Reaches altitude 10° 04:44:32 10° 16° (NNE) 2,313 5.6 -24.3°
Maximum altitude 04:49:39 80° 103° (ESE) 782 3.0 -23.4°
Drops below altitude 10° 04:54:43 10° 191° (S) 2,295 5.4 -22.5°
Sets 04:57:00 0° 192° (SSW) 3,216 6.2 -22.1°
